FENGYUN 1C DEB, 31987

Orbit data source: Space-Track

FENGYUN 1C DEB, 31987 is space debris in SSO originally from a launch on Mon, 10 May 1999 UTC launched from the Taiyaun Space Center, China (TSC). Fengyun 1C debris stems from the Chinese weather satellite Fengyun-1C, which was intentionally destroyed by a Chinese anti-satellite missile in 2007. This event dramatically increased the amount of space debris, with thousands of trackable fragments posing hazards to satellites and human spaceflight. The Fengyun 1C debris cloud has become a focal point in discussions about space sustainability and the need for international regulations to prevent the creation of new debris.

Loading next visibility...
Identifier
31987, 1999-025CPQ
Orbit
SSO
Country
Flag of CNCN / PRC
Related business
Manufacturer
Unknown
Mission
Spacecraft
Bus & Motor
Unknown
Mass
Unknown
Launch date (UTC)
1999-05-10 (27 years ago)
Launch vehicle
Unknown
Launch site
Taiyaun Space Center, China (TSC)
Object type
Payload
Rocket body
Debris
Shape & HBR
Unknown shape, 0.1 m
Radar Cross Section
Medium (>0.1 m² and <1 m²)

Expand to show TLE details & history
Last TLE update: 12 hours ago

TLE from 12 hours ago
0 FENGYUN 1C DEB
1 31987U 99025CPQ 26150.92252102  .00004218  00000-0  11736-2 0  9995
2 31987  99.0501 140.6252 0051362  17.5424  12.5245 14.46206904988149
Epoch: 2026-05-30T22:08Z
TLE epoch observation values (Epoch: 2026-05-30T22:08:25.816Z)
Latitude
29.83356°
Longitude
-85.12668°
Altitude
706.124 km
Speed
7.524 km/s
True Right ascension
09h 01m 38s
True Declination
29° 41' 03"
Sunlit
Object was in daylight at epoch
Visualization orbit readout
Latitude
Unknown
Longitude
Unknown
Altitude
Unknown
Speed
Unknown
Apparent Right ascension
Unknown
Apparent Declination
Unknown
Sunlit
N/A
Visualization observer readout
Local Sidereal Time
19:24:19
Azimuth
Unknown
Elevation
Unknown
Doppler factor
Unknown
Orbital elements
Apogee altitude
771.74 km
Perigee altitude
698.669 km
Semi-major axis
7,113.342 km
Eccentricity
0.00514
Inclination
99.0501°
RAAN
140.6252°
Arg. of periapsis
17.5424°
True anomaly
12.65294°
Mean anomaly
12.5245°
Eccentric anomaly
12.58864°
Mean motion
3.6177 °/min
Orbital period
99.51 mins
BSTAR
0.0011736
Loading maneuver chart data...
Computing Atmospheric mass density...
Loading historical data...
Loading historical data...
Loading historical data...
Loading historical data...
Loading historical data...
Loading historical data...
Loading historical data...

Documentation

Showing up to 5 results
|